Weather History for Kahului, HI

Change the Weather History Date:

Monday, October 7, 2013

  Actual Average Record
Temperature  
Mean Temperature 79 °F 79 °F  
Max Temperature 88 °F 87 °F 92 °F (1959)
Min Temperature 70 °F 70 °F 62 °F (1967)
Degree Days  
Heating Degree Days 0 0  
Month to date heating degree days 0 0  
Since 1 July heating degree days 0 0  
Cooling Degree Days 14 14  
Month to date cooling degree days 102 98  
Year to date cooling degree days 3350 3066  
Growing Degree Days 28 (Base 50)    
Moisture  
Dew Point 66 °F    
Average Humidity 68    
Maximum Humidity 84    
Minimum Humidity 51    
Precipitation  
Precipitation 0.00 in 0.03 in 0.97 in (1992)
Month to date precipitation 0.01 0.19  
Year to date precipitation 8.92 11.27  
Snow  
Snow 0.00 in - - ()
Month to date snowfall 0.0  
Since 1 July snowfall 0.0  
Since 1 September snowfall 0.0  
Snow Depth 0.00 in    
Sea Level Pressure  
Sea Level Pressure 30.01 in    
Wind  
Wind Speed 11 mph (ENE)    
Max Wind Speed 25 mph    
Max Gust Speed 33 mph    
Visibility 10 miles    
Events      
T = Trace of Precipitation, MM = Missing Value Source: NWS Daily Summary

Daily Weather History Graph

Daily Weather History Graph

Search for Another Location

Airport:

Trip Planner

Search our weather history database for the weather conditions in past years. The results will help you decide how hot, cold, wet, or windy it might be!

Date:

Astronomy

Oct. 07, 2013 Rise Set
Actual Time 6:18 AM HST 6:07 PM HST
Civil Twilight 5:56 AM HST 6:30 PM HST
Nautical Twilight 5:30 AM HST 6:55 PM HST
Astronomical Twilight 5:05 AM HST 7:21 PM HST
Moon 8:56 AM HST (10/7) 8:27 PM HST (10/7)
Length of Visible Light 12h 33m
Length of Day
11h 49m
Waxing Crescent, 10% of the Moon is Illuminated
Oct 7
Waxing Crescent
Oct 11
First Quarter
Oct 18
Full
Oct 26
Last Quarter
Nov 3
New

Hourly Weather History & Observations

Time (HST) Temp. Heat Index Dew Point Humidity Pressure Visibility Wind Dir Wind Speed Gust Speed Precip Events Conditions
12:54 AM 73.9 °F - 66.9 °F 79% 29.99 in 10.0 mi ESE 3.5 mph - N/A   Clear
1:54 AM 73.0 °F - 66.9 °F 81% 29.98 in 10.0 mi East 4.6 mph - N/A   Mostly Cloudy
2:54 AM 72.0 °F - 66.9 °F 84% 29.98 in 10.0 mi Calm Calm - N/A   Scattered Clouds
3:54 AM 75.0 °F - 64.9 °F 71% 29.98 in 10.0 mi NW 3.5 mph - N/A   Clear
4:54 AM 73.0 °F - 66.0 °F 79% 29.99 in 10.0 mi NNE 9.2 mph - N/A   Partly Cloudy
5:54 AM 73.0 °F - 64.9 °F 76% 30.00 in 10.0 mi WNW 4.6 mph - N/A   Mostly Cloudy
6:54 AM 75.0 °F - 64.0 °F 69% 30.00 in 10.0 mi NNE 10.4 mph 17.3 mph N/A   Mostly Cloudy
7:54 AM 79.0 °F - 64.9 °F 62% 30.02 in 10.0 mi ENE 10.4 mph 24.2 mph N/A   Scattered Clouds
8:54 AM 82.0 °F 83.8 °F 64.9 °F 56% 30.02 in 10.0 mi ENE 20.7 mph 29.9 mph N/A   Scattered Clouds
9:54 AM 82.0 °F 84.1 °F 66.0 °F 58% 30.03 in 10.0 mi East 17.3 mph 29.9 mph N/A   Scattered Clouds
10:54 AM 84.9 °F 87.6 °F 66.9 °F 55% 30.03 in 10.0 mi ENE 18.4 mph 26.5 mph N/A   Scattered Clouds
11:54 AM 84.9 °F 87.6 °F 66.9 °F 55% 30.01 in 10.0 mi ENE 17.3 mph 28.8 mph N/A   Partly Cloudy
12:54 PM 84.9 °F 87.1 °F 66.0 °F 53% 29.99 in 10.0 mi ENE 20.7 mph 27.6 mph N/A   Scattered Clouds
1:54 PM 84.9 °F 86.6 °F 64.9 °F 51% 29.98 in 10.0 mi ENE 15.0 mph 25.3 mph N/A   Scattered Clouds
2:54 PM 84.0 °F 86.3 °F 66.0 °F 55% 29.97 in 10.0 mi ENE 13.8 mph 23.0 mph N/A   Scattered Clouds
3:54 PM 84.9 °F 85.4 °F 62.1 °F 46% 29.96 in 10.0 mi ENE 16.1 mph 23.0 mph N/A   Scattered Clouds
4:54 PM 81.0 °F 83.0 °F 66.0 °F 60% 29.99 in 10.0 mi ENE 17.3 mph - N/A   Scattered Clouds
5:54 PM 80.1 °F 81.9 °F 64.9 °F 60% 30.00 in 10.0 mi ENE 15.0 mph 20.7 mph N/A   Scattered Clouds
6:54 PM 77.0 °F - 66.9 °F 71% 30.02 in 10.0 mi ENE 16.1 mph 24.2 mph N/A   Clear
7:54 PM 75.9 °F - 69.1 °F 79% 30.04 in 10.0 mi ENE 15.0 mph 24.2 mph N/A   Clear
8:54 PM 77.0 °F - 64.0 °F 64% 30.06 in 10.0 mi East 12.7 mph 23.0 mph N/A   Clear
9:54 PM 77.0 °F - 64.0 °F 64% 30.06 in 10.0 mi East 11.5 mph 23.0 mph N/A   Clear
10:54 PM 75.0 °F - 64.9 °F 71% 30.07 in 10.0 mi ENE 10.4 mph - N/A   Clear
11:54 PM 73.0 °F - 66.0 °F 79% 30.06 in 10.0 mi Calm Calm - N/A   Clear